Location: Altmatt
(47.1333°N, 8.7000°E)
Time: 17:18:07
(UTC+00:00)

Cosmos 1331 Rocket - Pass Details

Date: 13 July 2020
Orbit: 749 x 778 km, 74.0° (Epoch: 13 August)

Event Time Altitude Azimuth Distance (km) Brightness Sun altitude
Rises 23:11:31 0° 333° (NNW) 3,272 8.5 -21.1°
Reaches altitude 10° 23:13:59 10° 328° (NNW) 2,339 7.4 -21.1°
Maximum altitude 23:19:04 48° 255° (WSW) 1,008 4.5 -21.2°
Enters shadow 23:20:22 40° 215° (SW) 1,141 4.5 -21.2°
